Weather WX

World > North America > United States > Oregon

Juntura, Oregon Regional Weather

Lat: 43.74N, Lon: 118.09W
Wx Zone: ORZ063
Feedback

Juntura, OR Regional Weather

Expires:201906270300;;134782
ASUS46 KPQR 270210
RWROR 

OREGON REGIONAL WEATHER ROUNDUP
NATIONAL WEATHER SERVICE PORTLAND OR
700 PM PDT WED JUN 26 2019

NOTE: "FAIR" INDICATES FEW OR NO CLOUDS BELOW 12,000 FEET WITH
NO SIGNIFICANT WEATHER AND/OR OBSTRUCTIONS TO VISIBILITY.


ORZ029>031-041-044-049-050-061>064-502-503-505>511-270300-
EASTERN OREGON

  
CITY           SKY/WX    TMP DP  RH WIND       PRES   REMARKS
MADRAS         CLOUDY    52  45  76 NW5       29.92R                  
REDMOND        LGT RAIN  54  42  64 NW12      29.90R                  
BEND           PTSUNNY   57  45  62 W15       29.89R                  
PRINEVILLE     RAIN      48  45  87 NW18      29.91                   
KLAMATH FALLS  MOSUNNY   62  35  36 W15       29.91R                  
LAKEVIEW       MOSUNNY   63  30  28 SW24      29.91R                  
HERMISTON      LGT RAIN  63  51  65 MISG      29.80R                  
PENDLETON      PTSUNNY   62  52  69 NW25G31   29.80R                  
JOHN DAY       CLOUDY    65  49  56 W23G30    29.82R                  
MEACHAM        CLOUDY    62  49  62 VRB3      29.84R                  
LA GRANDE      MOSUNNY   63  54  72 W7        29.80R                  
BAKER CITY     PTSUNNY   63  55  75 W9        29.79R                  
BURNS          LGT RAIN  68  27  21 SW16G46   29.86R                  
ROME             N/A     77  19  11 SW21G30   29.80R                  
ONTARIO        PTSUNNY   86  44  23 W9        29.69R                  
$$
  

SKY/WX - Weather  TMP - Temperature  DP - Dew Point  RH - Relative Humidity
WIND - Wind Direction/Speed PRES - Barometric Pressure VSB - Visibility
WCI - Wind Chill Index E13G22 Wind - East Wind 13 mph/Gusts of 22 mph